Location: Aurora Center
(43.5271°N, 98.5894°W)
Time: 12:56:46
(UTC-05:00)

HTV-X1 - Visible Passes

Search period start: 18 May 2026 00:00
Search period end: 28 May 2026 00:00
Orbit: 372 x 382 km, 51.6° (Epoch: 18 May)

Date Brightness Start Highest point End Pass type
(mag) Time Alt. Az. Time Alt. Az. Time Alt. Az.
18 May ? 22:48:37 10° NW 22:51:11 24° NNE 22:53:04 14° ENE visible
19 May ? 00:24:15 10° WNW 00:25:09 18° WNW 00:25:09 18° WNW visible
19 May ? 21:47:36 10° NW 21:49:55 19° N 21:52:13 10° NE visible
19 May ? 23:23:17 10° NW 23:26:16 49° NNE 23:26:16 49° NNE visible
20 May ? 22:22:22 10° NW 22:25:08 29° NNE 22:27:25 13° ENE visible
20 May ? 23:58:08 10° WNW 23:59:29 22° WNW 23:59:29 22° WNW visible
21 May ? 22:57:02 10° NW 23:00:07 75° NNE 23:00:38 56° E visible
22 May ? 21:56:03 10° NW 21:58:58 38° NNE 22:01:47 11° E visible
22 May ? 23:32:03 10° WNW 23:33:52 24° WSW 23:33:52 24° WSW visible
23 May ? 22:30:44 10° WNW 22:33:48 69° SW 22:35:02 32° SE visible
24 May ? 23:06:04 10° W 23:08:19 19° SW 23:08:19 19° SW visible
25 May ? 22:04:27 10° WNW 22:07:22 42° SW 22:09:33 16° SSE visible
26 May ? 22:40:31 10° WSW 22:41:44 12° SW 22:42:54 10° SSW visible
27 May ? 21:38:12 10° WNW 21:40:50 26° SW 21:43:28 10° SSE visible
